Location: Enikep?du
(16.5133°N, 80.7066°E)
Time: 04:21:05
(UTC+00:00)

STARLINK-1028 - Pass Details

Date: 20 January 2020
Orbit: 385 x 387 km, 53.0° (Epoch: 19 February)

Event Time Altitude Azimuth Distance (km) Brightness Sun altitude
Exits shadow 23:11:22 16° 86° (E) 1,101 5.9 -27.8°
Drops below altitude 10° 23:12:19 10° 71° (ENE) 1,381 6.3 -27.6°
Enters shadow 00:18:53 -49° 220° (SW) 10,057 10.0 -12.2°
